Time,TemperatureF,DewpointF,PressureIn,WindDirection,WindDirectionDegrees,WindSpeedMPH,WindSpeedGustMPH,Humidity,HourlyPrecipIn,Conditions,Clouds,dailyrainin,SoftwareType,DateUTC
2013-09-22 00:09:00,78.8,57.4,29.59,SE,137,0.0,1.0,48,0.00,,,0.00,Wunderground v.1.15,2013-09-22 07:09:00,
2013-09-22 00:19:00,78.3,57.6,29.59,SE,136,0.0,0.0,49,0.00,,,0.00,Wunderground v.1.15,2013-09-22 07:19:00,
2013-09-22 00:29:00,77.9,57.8,29.59,SE,136,0.0,0.0,50,0.00,,,0.00,Wunderground v.1.15,2013-09-22 07:29:00,
2013-09-22 00:39:00,77.7,57.6,29.59,SE,131,1.0,1.0,50,0.00,,,0.00,Wunderground v.1.15,2013-09-22 07:39:00,
2013-09-22 00:49:00,77.8,57.7,29.59,SE,130,1.0,1.0,50,0.00,,,0.00,Wunderground v.1.15,2013-09-22 07:49:00,
2013-09-22 00:59:00,78.1,57.4,29.59,ESE,122,1.0,1.0,49,0.00,,,0.00,Wunderground v.1.15,2013-09-22 07:59:00,
2013-09-22 01:09:00,78.4,57.7,29.59,ESE,117,0.0,1.0,49,0.00,,,0.00,Wunderground v.1.15,2013-09-22 08:09:00,
2013-09-22 01:19:00,78.6,57.8,29.59,ESE,117,1.0,1.0,49,0.00,,,0.00,Wunderground v.1.15,2013-09-22 08:19:00,
2013-09-22 01:29:00,78.3,57.6,29.59,ESE,120,1.0,1.0,49,0.00,,,0.00,Wunderground v.1.15,2013-09-22 08:29:00,
2013-09-22 01:39:00,77.3,57.8,29.59,ESE,120,0.0,0.0,51,0.00,,,0.00,Wunderground v.1.15,2013-09-22 08:39:00,
2013-09-22 01:44:00,77.1,57.6,29.59,ESE,120,0.0,0.0,51,0.00,,,0.00,Wunderground v.1.15,2013-09-22 08:44:00,
2013-09-22 01:54:00,76.6,57.7,29.58,SSE,164,1.0,2.0,52,0.00,,,0.00,Wunderground v.1.15,2013-09-22 08:54:00,
2013-09-22 01:59:00,76.6,57.7,29.58,SSE,163,1.0,1.0,52,0.00,,,0.00,Wunderground v.1.15,2013-09-22 08:59:00,
2013-09-22 02:09:00,76.5,57.6,29.58,SSE,163,0.0,0.0,52,0.00,,,0.00,Wunderground v.1.15,2013-09-22 09:09:00,
2013-09-22 02:19:00,76.2,57.8,29.58,SSE,163,0.0,0.0,53,0.00,,,0.00,Wunderground v.1.15,2013-09-22 09:19:00,
2013-09-22 02:24:00,75.9,57.5,29.58,SSE,164,0.0,0.0,53,0.00,,,0.00,Wunderground v.1.15,2013-09-22 09:24:00,
2013-09-22 02:34:00,75.6,57.8,29.58,SSE,164,0.0,0.0,54,0.00,,,0.00,Wunderground v.1.15,2013-09-22 09:34:00,
2013-09-22 02:44:00,75.4,57.6,29.57,SSE,162,0.0,0.0,54,0.00,,,0.00,Wunderground v.1.15,2013-09-22 09:44:00,
2013-09-22 02:54:00,75.9,58.1,29.57,SE,134,0.0,2.0,54,0.00,,,0.00,Wunderground v.1.15,2013-09-22 09:54:00,
2013-09-22 02:59:00,76.5,58.1,29.57,SE,136,0.0,1.0,53,0.00,,,0.00,Wunderground v.1.15,2013-09-22 09:59:00,
2013-09-22 03:08:00,75.6,57.8,29.57,SE,136,1.0,1.0,54,0.00,,,0.00,Wunderground v.1.15,2013-09-22 10:08:00,
2013-09-22 03:14:00,75.2,57.9,29.57,SE,136,0.0,1.0,55,0.00,,,0.00,Wunderground v.1.15,2013-09-22 10:14:00,
2013-09-22 03:24:00,74.3,58.1,29.57,SE,137,0.0,0.0,57,0.00,,,0.00,Wunderground v.1.15,2013-09-22 10:24:00,
2013-09-22 03:34:00,73.5,58.3,29.57,SE,136,0.0,0.0,59,0.00,,,0.00,Wunderground v.1.15,2013-09-22 10:34:00,
2013-09-22 04:09:00,73.9,61.4,29.56,SE,145,0.0,0.0,65,0.00,,,0.00,Wunderground v.1.15,2013-09-22 11:09:00,
2013-09-22 04:19:00,73.4,60.9,29.57,SE,145,0.0,0.0,65,0.00,,,0.00,Wunderground v.1.15,2013-09-22 11:19:00,
2013-09-22 04:28:00,73.4,61.8,29.57,SE,145,0.0,1.0,67,0.00,,,0.00,Wunderground v.1.15,2013-09-22 11:28:00,
2013-09-22 04:34:00,73.8,61.7,29.57,SE,145,1.0,1.0,66,0.00,,,0.00,Wunderground v.1.15,2013-09-22 11:34:00,
2013-09-22 04:44:00,74.0,61.5,29.57,SE,145,0.0,0.0,65,0.00,,,0.00,Wunderground v.1.15,2013-09-22 11:44:00,
2013-09-22 04:54:00,73.9,61.4,29.57,SE,145,0.0,0.0,65,0.00,,,0.00,Wunderground v.1.15,2013-09-22 11:54:00,
2013-09-22 04:59:00,73.8,61.7,29.57,SE,145,0.0,0.0,66,0.00,,,0.00,Wunderground v.1.15,2013-09-22 11:59:00,
2013-09-22 05:09:00,73.2,61.6,29.57,SE,145,0.0,0.0,67,0.00,,,0.00,Wunderground v.1.15,2013-09-22 12:09:00,
2013-09-22 05:19:00,74.2,61.2,29.57,South,172,0.0,0.0,64,0.00,,,0.00,Wunderground v.1.15,2013-09-22 12:19:00,
2013-09-22 05:34:00,74.8,61.4,29.58,SSW,197,0.0,1.0,63,0.00,,,0.00,Wunderground v.1.15,2013-09-22 12:34:00,
2013-09-22 05:44:00,75.0,61.1,29.58,SSE,168,0.0,1.0,62,0.00,,,0.00,Wunderground v.1.15,2013-09-22 12:44:00,
2013-09-22 05:54:00,75.5,61.1,29.58,SE,143,1.0,1.0,61,0.00,,,0.00,Wunderground v.1.15,2013-09-22 12:54:00,
2013-09-22 05:59:00,75.5,61.6,29.58,SE,143,0.0,0.0,62,0.00,,,0.00,Wunderground v.1.15,2013-09-22 12:59:00,
2013-09-22 06:09:00,75.0,61.1,29.58,SE,144,0.0,0.0,62,0.00,,,0.00,Wunderground v.1.15,2013-09-22 13:09:00,
2013-09-22 06:19:00,74.8,60.4,29.58,ESE,122,0.0,0.0,61,0.00,,,0.00,Wunderground v.1.15,2013-09-22 13:19:00,
2013-09-22 06:29:00,75.3,60.9,29.58,SSE,153,0.0,0.0,61,0.00,,,0.00,Wunderground v.1.15,2013-09-22 13:29:00,
2013-09-22 06:40:00,74.7,61.3,29.59,SSE,153,0.0,0.0,63,0.00,,,0.00,Wunderground v.1.15,2013-09-22 13:40:00,
2013-09-22 06:50:00,74.5,61.5,29.59,SSE,152,0.0,0.0,64,0.00,,,0.00,Wunderground v.1.15,2013-09-22 13:50:00,
2013-09-22 07:00:00,75.1,62.1,29.59,SSE,152,0.0,0.0,64,0.00,,,0.00,Wunderground v.1.15,2013-09-22 14:00:00,
2013-09-22 07:10:00,75.8,62.3,29.59,SSE,152,0.0,0.0,63,0.00,,,0.00,Wunderground v.1.15,2013-09-22 14:10:00,
2013-09-22 07:20:00,76.3,62.8,29.59,SSE,152,0.0,0.0,63,0.00,,,0.00,Wunderground v.1.15,2013-09-22 14:20:00,
2013-09-22 07:30:00,76.8,63.2,29.59,SSE,153,0.0,0.0,63,0.00,,,0.00,Wunderground v.1.15,2013-09-22 14:30:00,
2013-09-22 07:35:00,77.6,63.1,29.59,SSE,164,0.0,0.0,61,0.00,,,0.00,Wunderground v.1.15,2013-09-22 14:35:00,
2013-09-22 07:45:00,80.8,61.5,29.59,South,190,0.0,0.0,52,0.00,,,0.00,Wunderground v.1.15,2013-09-22 14:45:00,
2013-09-22 07:55:00,81.4,61.5,29.59,SSE,167,1.0,1.0,51,0.00,,,0.00,Wunderground v.1.15,2013-09-22 14:55:00,
2013-09-22 08:00:00,81.8,61.9,29.59,SE,146,1.0,2.0,51,0.00,,,0.00,Wunderground v.1.15,2013-09-22 15:00:00,
2013-09-22 08:10:00,82.1,62.2,29.59,East,90,2.0,3.0,51,0.00,,,0.00,Wunderground v.1.15,2013-09-22 15:10:00,
2013-09-22 08:20:00,82.2,61.7,29.59,ESE,104,3.0,5.0,50,0.00,,,0.00,Wunderground v.1.15,2013-09-22 15:20:00,
2013-09-22 08:25:00,82.1,61.6,29.60,ESE,115,4.0,5.0,50,0.00,,,0.00,Wunderground v.1.15,2013-09-22 15:25:00,
2013-09-22 08:35:00,82.1,61.6,29.59,SE,134,3.0,4.0,50,0.00,,,0.00,Wunderground v.1.15,2013-09-22 15:35:00,
2013-09-22 08:45:00,82.7,61.6,29.60,SE,131,3.0,6.0,49,0.00,,,0.00,Wunderground v.1.15,2013-09-22 15:45:00,
2013-09-22 08:50:00,83.1,62.0,29.60,ESE,104,3.0,3.0,49,0.00,,,0.00,Wunderground v.1.15,2013-09-22 15:50:00,
2013-09-22 09:00:00,83.7,62.5,29.60,SSE,149,2.0,2.0,49,0.00,,,0.00,Wunderground v.1.15,2013-09-22 16:00:00,
2013-09-22 09:10:00,83.4,62.8,29.60,ENE,65,4.0,5.0,50,0.00,,,0.00,Wunderground v.1.15,2013-09-22 16:10:00,
2013-09-22 09:15:00,83.4,62.8,29.60,NE,53,4.0,5.0,50,0.00,,,0.00,Wunderground v.1.15,2013-09-22 16:15:00,
2013-09-22 09:20:00,84.1,63.5,29.60,East,94,5.0,5.0,50,0.00,,,0.00,Wunderground v.1.15,2013-09-22 16:20:00,
2013-09-22 09:30:00,83.7,63.1,29.60,SE,134,4.0,4.0,50,0.00,,,0.00,Wunderground v.1.15,2013-09-22 16:30:00,
2013-09-22 09:40:00,84.5,63.8,29.59,ESE,110,3.0,3.0,50,0.00,,,0.00,Wunderground v.1.15,2013-09-22 16:40:00,
2013-09-22 09:45:00,84.5,63.8,29.59,NE,49,3.0,5.0,50,0.00,,,0.00,Wunderground v.1.15,2013-09-22 16:45:00,
2013-09-22 09:55:00,85.9,63.9,29.59,NNE,18,5.0,5.0,48,0.00,,,0.00,Wunderground v.1.15,2013-09-22 16:55:00,
2013-09-22 10:00:00,86.3,64.9,29.59,NNE,30,6.0,6.0,49,0.00,,,0.00,Wunderground v.1.15,2013-09-22 17:00:00,
2013-09-22 10:10:00,86.9,64.8,29.58,NNW,340,6.0,7.0,48,0.00,,,0.00,Wunderground v.1.15,2013-09-22 17:10:00,
2013-09-22 10:15:00,86.9,64.2,29.58,NNE,16,7.0,7.0,47,0.00,,,0.00,Wunderground v.1.15,2013-09-22 17:15:00,
2013-09-22 10:25:00,86.8,64.8,29.58,NE,45,3.0,5.0,48,0.00,,,0.00,Wunderground v.1.15,2013-09-22 17:25:00,
2013-09-22 10:30:00,87.8,65.1,29.57,NW,325,4.0,4.0,47,0.00,,,0.00,Wunderground v.1.15,2013-09-22 17:30:00,
2013-09-22 10:35:00,88.1,64.7,29.57,ENE,58,5.0,6.0,46,0.00,,,0.00,Wunderground v.1.15,2013-09-22 17:35:00,
2013-09-22 10:40:00,87.3,64.0,29.57,ESE,113,5.0,5.0,46,0.00,,,0.00,Wunderground v.1.15,2013-09-22 17:40:00,
2013-09-22 10:50:00,87.1,63.8,29.56,North,9,4.0,14.0,46,0.00,,,0.00,Wunderground v.1.15,2013-09-22 17:50:00,
2013-09-22 11:00:00,89.4,62.6,29.55,North,358,9.0,12.0,41,0.00,,,0.00,Wunderground v.1.15,2013-09-22 18:00:00,
2013-09-22 11:10:00,89.5,62.0,29.54,NNE,25,10.0,11.0,40,0.00,,,0.00,Wunderground v.1.15,2013-09-22 18:10:00,
2013-09-22 11:20:00,90.5,61.4,29.53,East,89,13.0,13.0,38,0.00,,,0.00,Wunderground v.1.15,2013-09-22 18:20:00,
2013-09-22 11:30:00,90.8,60.9,29.53,East,97,13.0,13.0,37,0.00,,,0.00,Wunderground v.1.15,2013-09-22 18:30:00,
2013-09-22 11:40:00,91.4,59.9,29.53,NNE,27,11.0,11.0,35,0.00,,,0.00,Wunderground v.1.15,2013-09-22 18:40:00,
2013-09-22 11:50:00,91.4,61.5,29.53,ENE,65,11.0,11.0,37,0.00,,,0.00,Wunderground v.1.15,2013-09-22 18:50:00,
2013-09-22 12:00:00,91.3,59.0,29.53,NE,39,10.0,12.0,34,0.00,,,0.00,Wunderground v.1.15,2013-09-22 19:00:00,
2013-09-22 12:10:00,91.3,59.0,29.53,NNE,26,13.0,13.0,34,0.00,,,0.00,Wunderground v.1.15,2013-09-22 19:10:00,
2013-09-22 12:25:00,89.8,59.3,29.53,ENE,69,12.0,14.0,36,0.00,,,0.00,Wunderground v.1.15,2013-09-22 19:25:00,
2013-09-22 12:35:00,91.0,58.7,29.53,ENE,72,11.0,12.0,34,0.00,,,0.00,Wunderground v.1.15,2013-09-22 19:35:00,
2013-09-22 12:45:00,91.7,60.2,29.52,NE,36,11.0,12.0,35,0.00,,,0.00,Wunderground v.1.15,2013-09-22 19:45:00,
2013-09-22 12:50:00,92.2,59.8,29.52,ENE,75,10.0,11.0,34,0.00,,,0.00,Wunderground v.1.15,2013-09-22 19:50:00,
2013-09-22 12:55:00,92.1,58.9,29.52,NNE,22,9.0,11.0,33,0.00,,,0.00,Wunderground v.1.15,2013-09-22 19:55:00,
2013-09-22 13:00:00,92.7,59.4,29.51,East,84,9.0,14.0,33,0.00,,,0.00,Wunderground v.1.15,2013-09-22 20:00:00,
2013-09-22 13:10:00,92.0,58.8,29.51,NNE,30,10.0,10.0,33,0.00,,,0.00,Wunderground v.1.15,2013-09-22 20:10:00,
2013-09-22 13:15:00,92.6,55.7,29.50,ENE,58,10.0,15.0,29,0.00,,,0.00,Wunderground v.1.15,2013-09-22 20:15:00,
2013-09-22 13:25:00,92.5,57.5,29.50,ENE,70,10.0,12.0,31,0.00,,,0.00,Wunderground v.1.15,2013-09-22 20:25:00,
2013-09-22 13:35:00,92.1,55.3,29.50,East,93,12.0,15.0,29,0.00,,,0.00,Wunderground v.1.15,2013-09-22 20:35:00,
2013-09-22 13:40:00,92.5,56.6,29.50,NE,46,12.0,12.0,30,0.00,,,0.00,Wunderground v.1.15,2013-09-22 20:40:00,
2013-09-22 13:50:00,93.4,55.4,29.50,East,101,11.0,11.0,28,0.00,,,0.00,Wunderground v.1.15,2013-09-22 20:50:00,
2013-09-22 14:00:00,92.3,56.4,29.49,ENE,68,11.0,11.0,30,0.00,,,0.00,Wunderground v.1.15,2013-09-22 21:00:00,
2013-09-22 14:15:00,91.9,56.0,29.49,ENE,77,10.0,14.0,30,0.00,,,0.00,Wunderground v.1.15,2013-09-22 21:15:00,
2013-09-22 14:25:00,92.2,55.4,29.49,NE,37,10.0,10.0,29,0.00,,,0.00,Wunderground v.1.15,2013-09-22 21:25:00,
2013-09-22 14:35:00,93.3,55.3,29.49,ENE,64,9.0,12.0,28,0.00,,,0.00,Wunderground v.1.15,2013-09-22 21:35:00,
2013-09-22 14:45:00,93.1,55.2,29.49,NE,37,10.0,22.0,28,0.00,,,0.00,Wunderground v.1.15,2013-09-22 21:45:00,
2013-09-22 14:55:00,92.8,53.9,29.49,East,100,11.0,11.0,27,0.00,,,0.00,Wunderground v.1.15,2013-09-22 21:55:00,
2013-09-22 15:00:00,92.8,53.9,29.49,NNE,18,11.0,12.0,27,0.00,,,0.00,Wunderground v.1.15,2013-09-22 22:00:00,
2013-09-22 15:10:00,92.1,52.3,29.49,East,86,12.0,15.0,26,0.00,,,0.00,Wunderground v.1.15,2013-09-22 22:10:00,
2013-09-22 15:20:00,93.5,51.3,29.49,NNE,27,10.0,10.0,24,0.00,,,0.00,Wunderground v.1.15,2013-09-22 22:20:00,
2013-09-22 15:30:00,93.1,52.1,29.49,ESE,110,11.0,11.0,25,0.00,,,0.00,Wunderground v.1.15,2013-09-22 22:30:00,
2013-09-22 15:40:00,92.8,50.7,29.49,East,83,9.0,9.0,24,0.00,,,0.00,Wunderground v.1.15,2013-09-22 22:40:00,
2013-09-22 15:45:00,92.2,52.4,29.49,East,94,10.0,10.0,26,0.00,,,0.00,Wunderground v.1.15,2013-09-22 22:45:00,
2013-09-22 15:55:00,91.9,52.1,29.50,ESE,121,10.0,14.0,26,0.00,,,0.00,Wunderground v.1.15,2013-09-22 22:55:00,
2013-09-22 16:00:00,91.5,51.8,29.49,East,82,9.0,14.0,26,0.00,,,0.00,Wunderground v.1.15,2013-09-22 23:00:00,
2013-09-22 16:10:00,90.5,52.0,29.50,NE,34,11.0,11.0,27,0.00,,,0.00,Wunderground v.1.15,2013-09-22 23:10:00,
2013-09-22 16:20:00,90.9,52.3,29.50,NE,42,10.0,11.0,27,0.00,,,0.00,Wunderground v.1.15,2013-09-22 23:20:00,
2013-09-22 16:30:00,91.3,50.5,29.50,ESE,114,9.0,14.0,25,0.00,,,0.00,Wunderground v.1.15,2013-09-22 23:30:00,
2013-09-22 16:40:00,91.0,48.1,29.50,NE,46,10.0,10.0,23,0.00,,,0.00,Wunderground v.1.15,2013-09-22 23:40:00,
2013-09-22 16:50:00,91.1,48.1,29.50,ENE,77,11.0,11.0,23,0.00,,,0.00,Wunderground v.1.15,2013-09-22 23:50:00,
2013-09-22 16:55:00,90.9,48.0,29.50,ESE,108,9.0,11.0,23,0.00,,,0.00,Wunderground v.1.15,2013-09-22 23:55:00,
2013-09-22 17:01:00,90.4,47.6,29.50,East,82,10.0,10.0,23,0.00,,,0.00,Wunderground v.1.15,2013-09-23 00:01:00,
2013-09-22 17:10:00,90.2,47.4,29.51,NE,37,8.0,12.0,23,0.00,,,0.00,Wunderground v.1.15,2013-09-23 00:10:00,
2013-09-22 17:20:00,89.9,47.1,29.51,ENE,58,8.0,11.0,23,0.00,,,0.00,Wunderground v.1.15,2013-09-23 00:20:00,
2013-09-22 17:30:00,89.5,47.9,29.51,East,96,9.0,9.0,24,0.00,,,0.00,Wunderground v.1.15,2013-09-23 00:30:00,
2013-09-22 17:40:00,89.0,47.5,29.51,NE,40,9.0,10.0,24,0.00,,,0.00,Wunderground v.1.15,2013-09-23 00:40:00,
2013-09-22 17:50:00,88.3,49.1,29.51,ENE,74,9.0,9.0,26,0.00,,,0.00,Wunderground v.1.15,2013-09-23 00:50:00,
2013-09-22 17:55:00,88.0,48.8,29.52,East,84,8.0,9.0,26,0.00,,,0.00,Wunderground v.1.15,2013-09-23 00:55:00,
2013-09-22 18:00:00,87.4,49.3,29.52,ENE,71,8.0,9.0,27,0.00,,,0.00,Wunderground v.1.15,2013-09-23 01:00:00,
2013-09-22 18:10:00,86.6,48.6,29.52,ENE,68,8.0,10.0,27,0.00,,,0.00,Wunderground v.1.15,2013-09-23 01:10:00,
2013-09-22 18:20:00,86.1,49.2,29.53,ENE,72,9.0,9.0,28,0.00,,,0.00,Wunderground v.1.15,2013-09-23 01:20:00,
2013-09-22 18:30:00,85.5,45.7,29.53,ESE,123,6.0,6.0,25,0.00,,,0.00,Wunderground v.1.15,2013-09-23 01:30:00,
2013-09-22 18:35:00,85.1,45.3,29.53,ENE,74,6.0,6.0,25,0.00,,,0.00,Wunderground v.1.15,2013-09-23 01:35:00,
2013-09-22 18:45:00,84.7,45.0,29.53,ESE,103,7.0,11.0,25,0.00,,,0.00,Wunderground v.1.15,2013-09-23 01:45:00,
2013-09-22 18:50:00,84.4,44.7,29.54,SSE,148,6.0,6.0,25,0.00,,,0.00,Wunderground v.1.15,2013-09-23 01:50:00,
2013-09-22 19:01:00,83.5,42.9,29.54,East,91,6.0,6.0,24,0.00,,,0.00,Wunderground v.1.15,2013-09-23 02:01:00,
2013-09-22 19:10:00,82.9,42.4,29.55,ESE,102,7.0,10.0,24,0.00,,,0.00,Wunderground v.1.15,2013-09-23 02:10:00,
2013-09-22 19:20:00,82.5,42.1,29.56,South,173,7.0,7.0,24,0.00,,,0.00,Wunderground v.1.15,2013-09-23 02:20:00,
2013-09-22 19:30:00,82.0,41.6,29.57,East,95,5.0,5.0,24,0.00,,,0.00,Wunderground v.1.15,2013-09-23 02:30:00,
2013-09-22 19:40:00,81.6,41.3,29.58,SE,129,5.0,5.0,24,0.00,,,0.00,Wunderground v.1.15,2013-09-23 02:40:00,
2013-09-22 19:50:00,81.2,42.0,29.58,SE,130,4.0,4.0,25,0.00,,,0.00,Wunderground v.1.15,2013-09-23 02:50:00,
2013-09-22 20:00:00,80.7,41.6,29.59,SE,124,4.0,4.0,25,0.00,,,0.00,Wunderground v.1.15,2013-09-23 03:00:00,
2013-09-22 20:11:00,79.4,42.5,29.59,ESE,103,2.0,3.0,27,0.00,,,0.00,Wunderground v.1.15,2013-09-23 03:11:00,
2013-09-22 20:20:00,78.6,43.7,29.60,NE,51,3.0,4.0,29,0.00,,,0.00,Wunderground v.1.15,2013-09-23 03:20:00,
2013-09-22 20:30:00,78.0,43.2,29.60,NE,37,4.0,4.0,29,0.00,,,0.00,Wunderground v.1.15,2013-09-23 03:30:00,
2013-09-22 20:40:00,77.5,43.6,29.61,NNE,33,4.0,4.0,30,0.00,,,0.00,Wunderground v.1.15,2013-09-23 03:40:00,
2013-09-22 20:50:00,76.9,43.1,29.61,East,81,3.0,3.0,30,0.00,,,0.00,Wunderground v.1.15,2013-09-23 03:50:00,
2013-09-22 21:01:00,76.5,41.9,29.61,ESE,108,4.0,4.0,29,0.00,,,0.00,Wunderground v.1.15,2013-09-23 04:01:00,
2013-09-22 21:10:00,76.1,42.4,29.62,East,85,3.0,3.0,30,0.00,,,0.00,Wunderground v.1.15,2013-09-23 04:10:00,
2013-09-22 21:20:00,75.6,42.0,29.62,East,98,2.0,3.0,30,0.00,,,0.00,Wunderground v.1.15,2013-09-23 04:20:00,
2013-09-22 21:26:00,75.3,41.7,29.62,ESE,110,2.0,3.0,30,0.00,,,0.00,Wunderground v.1.15,2013-09-23 04:26:00,
2013-09-22 21:30:00,75.1,41.5,29.62,ESE,120,2.0,2.0,30,0.00,,,0.00,Wunderground v.1.15,2013-09-23 04:30:00,
2013-09-22 21:40:00,74.5,41.9,29.62,ESE,103,1.0,1.0,31,0.00,,,0.00,Wunderground v.1.15,2013-09-23 04:40:00,
2013-09-22 21:50:00,73.3,41.6,29.63,ESE,103,1.0,1.0,32,0.00,,,0.00,Wunderground v.1.15,2013-09-23 04:50:00,
2013-09-22 22:00:00,71.1,42.0,29.63,South,176,1.0,2.0,35,0.00,,,0.00,Wunderground v.1.15,2013-09-23 05:00:00,
2013-09-22 22:10:00,70.9,41.9,29.63,East,91,2.0,2.0,35,0.00,,,0.00,Wunderground v.1.15,2013-09-23 05:10:00,
2013-09-22 22:15:00,71.0,42.0,29.63,South,186,2.0,2.0,35,0.00,,,0.00,Wunderground v.1.15,2013-09-23 05:15:00,
2013-09-22 22:25:00,70.5,42.2,29.64,South,186,0.0,1.0,36,0.00,,,0.00,Wunderground v.1.15,2013-09-23 05:25:00,
2013-09-22 22:35:00,69.3,41.9,29.64,SSE,152,0.0,0.0,37,0.00,,,0.00,Wunderground v.1.15,2013-09-23 05:35:00,
2013-09-22 22:45:00,68.6,42.0,29.64,SSE,152,0.0,0.0,38,0.00,,,0.00,Wunderground v.1.15,2013-09-23 05:45:00,
2013-09-22 22:55:00,66.9,41.8,29.64,SSE,152,0.0,0.0,40,0.00,,,0.00,Wunderground v.1.15,2013-09-23 05:55:00,
2013-09-22 23:01:00,66.6,42.2,29.64,SSE,152,0.0,0.0,41,0.00,,,0.00,Wunderground v.1.15,2013-09-23 06:01:00,
2013-09-22 23:10:00,66.6,41.5,29.64,SSE,155,1.0,1.0,40,0.00,,,0.00,Wunderground v.1.15,2013-09-23 06:10:00,
2013-09-22 23:20:00,67.1,41.3,29.65,South,186,1.0,1.0,39,0.00,,,0.00,Wunderground v.1.15,2013-09-23 06:20:00,
2013-09-22 23:30:00,66.3,41.9,29.65,South,176,0.0,1.0,41,0.00,,,0.00,Wunderground v.1.15,2013-09-23 06:30:00,
2013-09-22 23:35:00,66.2,41.2,29.65,South,176,1.0,2.0,40,0.00,,,0.00,Wunderground v.1.15,2013-09-23 06:35:00,
2013-09-22 23:45:00,66.7,41.6,29.65,South,176,1.0,1.0,40,0.00,,,0.00,Wunderground v.1.15,2013-09-23 06:45:00,
2013-09-22 23:55:00,66.5,40.1,29.65,South,176,1.0,1.0,38,0.00,,,0.00,Wunderground v.1.15,2013-09-23 06:55:00,